Regional Weather Roundup
Issued by NWS

Home | Current Version | Previous Version | Text Only | Print | Product List | Glossary On
Versions: 1 2 3 4 5 6 7 8 9 10 11 12 13 14 15 16 17 18 19 20 21 22 23 24 25 26 27
000
ASUS42 KKEY 071110
RWRKEY

FLORIDA REGIONAL WEATHER ROUNDUP FOR THE FLORIDA KEYS
NATIONAL WEATHER SERVICE KEY WEST FLORIDA
600 AM EST WED DEC 07 2016

...SOUTH FLORIDA AND THE KEYS...

CITY           SKY/WX    TMP DP  RH WIND       PRES   REMARKS
FORT MYERS     CLEAR     71  69  93 CALM      30.01R
SW REGIONAL AP CLOUDY    70  68  93 CALM      30.02R
NAPLES         FOG      N/A N/A N/A N3        30.01R VSB 3/4
MIAMI          PTCLDY    75  73  93 CALM      30.01R
WEST KENDALL   MOCLDY    74  73  97 S3        30.01R
HOMESTEAD      PTCLDY    74  74 100 CALM      30.00R FOG
MARATHON       MOCLDY    78  75  90 CALM      29.99S
BOCA CHICA NAS PTCLDY    75  73  93 NE3       30.00R
KEY WEST INTL  CLOUDY    76  76 100 NE3       30.01R

...INTERNATIONAL WEATHER...

CITY           SKY/WX    TMP DP  RH WIND       PRES   REMARKS
NASSAU BAHAMAS PTCLDY    75  73  94 CALM      30.02R
CANCUN MEXICO  PTCLDY    77  77 100 SE7       29.96R
COZUMEL MEXICO PTCLDY    75  73  94 CALM      29.95R

ADJACENT COASTAL WATERS...

STATION/POSITION TIME  SKY/WX   TEMP    WIND        PRES    WAVE
                                AIR SEA DIR/SP/G            HT/PER
                 (UTC)          (F)     (DEG/KT/KT) (MB)    (FT/S)
PULASKI SHOAL LI 1100            76      10/  4/  4 1016.0R
SAND KEY         1050            77     100/  7/ 10 1016.5R
LONG KEY         1000            78 79  230/  5/  5 1015.7R
MOLASSES REEF    1000            76 79  350/  6/  7 1015.8R
FOWEY ROCKS      1000            77 78  270/  5/  5 1016.4R

$$




USA.gov is the U.S. government's official web portal to all federal, state and local government web resources and services.